CW7410 Weather Reports


Display with metric or nautical units.
time (UTC)temp
F
wind
direction
speed
MPH
gust
MPH
rain 1hr
in
rain 24hr
in
rain mn
in
humidity
%
barometer
mb
20260906014604 79 180 5.0 12.0 0.00 0.00 0.00 30 1012.8
20260906013100 80 195 5.0 9.0 0.00 0.00 0.00 31 1012.8
20260906011605 82 174 3.0 12.0 0.00 0.00 0.00 32 1012.9
20260906010114 83 225 4.0 14.0 0.00 0.00 0.00 29 1013.0
20260906004601 83 156 8.0 16.0 0.00 0.00 0.00 28 1013.0
20260906003057 84 188 5.0 15.0 0.00 0.00 0.00 26 1013.1
20260906001556 84 180 6.0 21.0 0.00 0.00 0.00 26 1013.1
20260906000109 84 200 9.0 18.0 0.00 0.00 0.00 26 1013.3
20260905234602 85 184 8.0 18.0 0.00 0.00 0.00 24 1013.5
20260905233103 85 205 11.0 23.0 0.00 0.00 0.00 24 1013.6
20260905231616 85 200 5.0 19.0 0.00 0.00 0.00 28 1013.6
20260905230107 86 163 9.0 16.0 0.00 0.00 0.00 26 1013.6
20260905224558 86 185 4.0 9.0 0.00 0.00 0.00 27 1013.6
20260905223056 86 191 6.0 17.0 0.00 0.00 0.00 26 1013.9
20260905221602 86 198 7.0 24.0 0.00 0.00 0.00 26 1014.1
20260905220101 86 136 9.0 19.0 0.00 0.00 0.00 27 1014.3
20260905214604 86 171 9.0 18.0 0.00 0.00 0.00 30 1014.4
20260905213056 85 195 9.0 20.0 0.00 0.00 0.00 29 1014.6
20260905211600 85 217 10.0 23.0 0.00 0.00 0.00 28 1014.8
20260905210114 85 136 12.0 24.0 0.00 0.00 0.00 27 1014.9
20260905204605 85 169 8.0 20.0 0.00 0.00 0.00 28 1015.0
20260905203108 85 118 5.0 19.0 0.00 0.00 0.00 28 1015.0
20260905201610 85 232 8.0 23.0 0.00 0.00 0.00 29 1015.2
20260905200127 84 179 11.0 22.0 0.00 0.00 0.00 27 1015.3
20260905194602 84 149 13.0 23.0 0.00 0.00 0.00 29 1015.4
20260905193101 84 174 11.0 19.0 0.00 0.00 0.00 29 1015.6
20260905191558 84 160 8.0 18.0 0.00 0.00 0.00 28 1015.9
20260905190105 83 147 9.0 20.0 0.00 0.00 0.00 27 1016.0
20260905184607 83 160 7.0 17.0 0.00 0.00 0.00 28 1016.2
20260905183059 83 153 9.0 22.0 0.00 0.00 0.00 29 1016.3
20260905181603 83 207 9.0 18.0 0.00 0.00 0.00 29 1016.4
20260905180116 83 178 6.0 16.0 0.00 0.00 0.00 30 1016.6
20260905174600 82 191 5.0 13.0 0.00 0.00 0.00 30 1016.6
20260905173121 82 202 10.0 18.0 0.00 0.00 0.00 31 1016.7
20260905171558 81 191 9.0 22.0 0.00 0.00 0.00 31 1016.7
20260905164610 80 158 11.0 23.0 0.00 0.00 0.00 30 1016.6
20260905163101 79 142 10.0 23.0 0.00 0.00 0.00 33 1016.5
20260905161604 78 135 12.0 24.0 0.00 0.00 0.00 33 1016.4
20260905160105 78 147 9.0 19.0 0.00 0.00 0.00 37 1016.4
20260905154605 77 178 11.0 18.0 0.00 0.00 0.00 36 1016.4
20260905153101 76 140 10.0 18.0 0.00 0.00 0.00 36 1016.4
20260905151559 74 119 3.0 11.0 0.00 0.00 0.00 44 1016.4
20260905150100 72 117 5.0 10.0 0.00 0.00 0.00 43 1016.5
20260905144559 69 142 3.0 8.0 0.00 0.00 0.00 49 1016.3
20260905143102 65 84 3.0 6.0 0.00 0.00 0.00 49 1016.4
20260905141558 64 43 3.0 9.0 0.00 0.00 0.00 50 1016.1
20260905134605 62 108 5.0 9.0 0.00 0.00 0.00 48 1015.7
20260905133058 63 360 6.0 10.0 0.00 0.00 0.00 47 1015.4
20260905131557 63 360 8.0 14.0 0.00 0.00 0.00 43 1015.1
20260905130058 64 360 9.0 15.0 0.00 0.00 0.00 42 1014.9
20260905124600 63 360 5.0 13.0 0.00 0.00 0.00 44 1015.0
20260905123105 63 360 10.0 16.0 0.00 0.00 0.00 44 1014.8
20260905121600 61 360 8.0 12.0 0.00 0.00 0.00 48 1014.7
20260905120109 63 360 4.0 6.0 0.00 0.00 0.00 51 1014.7
20260905114607 64 360 3.0 11.0 0.00 0.00 0.00 50 1014.7
20260905113102 65 360 9.0 17.0 0.00 0.00 0.00 47 1014.6
20260905111651 64 360 8.0 14.0 0.00 0.00 0.00 48 1014.5
20260905110056 64 360 8.0 14.0 0.00 0.00 0.00 49 1014.6
20260905104556 64 360 6.0 10.0 0.00 0.00 0.00 49 1014.5
20260905103103 65 360 5.0 10.0 0.00 0.00 0.00 47 1014.4
20260905101601 66 360 5.0 10.0 0.00 0.00 0.00 46 1014.3
20260905094554 67 360 7.0 12.0 0.00 0.00 0.00 44 1014.1
20260905093121 67 360 5.0 12.0 0.00 0.00 0.00 44 1014.1
20260905091559 67 360 8.0 16.0 0.00 0.00 0.00 43 1013.9
20260905090100 66 360 8.0 14.0 0.00 0.00 0.00 45 1013.8
20260905084558 67 360 7.0 14.0 0.00 0.00 0.00 45 1013.7
20260905083053 66 360 8.0 16.0 0.00 0.00 0.00 46 1013.6
20260905081556 66 360 8.0 11.0 0.00 0.00 0.00 46 1013.4
20260905080059 67 136 8.0 12.0 0.00 0.00 0.00 46 1013.4
20260905074556 67 155 5.0 11.0 0.00 0.00 0.00 46 1013.2
20260905073053 68 113 5.0 10.0 0.00 0.00 0.00 44 1013.1
20260905071556 69 145 6.0 10.0 0.00 0.00 0.00 43 1012.8
20260905070106 70 360 4.0 13.0 0.00 0.00 0.00 43 1012.7
20260905064619 70 360 8.0 15.0 0.00 0.00 0.00 41 1012.5
20260905063103 69 360 9.0 14.0 0.00 0.00 0.00 40 1012.3
20260905061557 69 360 6.0 10.0 0.00 0.00 0.00 42 1012.3
20260905060106 69 360 4.0 10.0 0.00 0.00 0.00 42 1012.1
20260905054554 71 135 4.0 8.0 0.00 0.00 0.00 41 1011.9
20260905053100 71 360 3.0 10.0 0.00 0.00 0.00 39 1011.8
20260905051602 72 360 4.0 11.0 0.00 0.00 0.00 38 1011.7
20260905044600 71 132 4.0 19.0 0.00 0.00 0.00 38 1011.6
20260905043104 71 179 6.0 10.0 0.00 0.00 0.00 37 1011.4
20260905041600 71 181 6.0 10.0 0.00 0.00 0.00 39 1011.3
20260905040100 72 180 4.0 8.0 0.00 0.00 0.00 39 1011.1
20260905034607 73 360 3.0 9.0 0.00 0.00 0.00 39 1011.0
20260905033102 73 360 5.0 9.0 0.00 0.00 0.00 38 1011.0
20260905031559 74 360 4.0 18.0 0.00 0.00 0.00 37 1010.8
20260905030116 74 179 9.0 17.0 0.00 0.00 0.00 36 1010.7
20260905024606 73 360 5.0 10.0 0.00 0.00 0.00 39 1010.4
20260905023101 74 360 5.0 10.0 0.00 0.00 0.00 38 1010.2
20260905021559 75 360 3.0 8.0 0.00 0.00 0.00 38 1010.2
20260905020106 78 173 4.0 9.0 0.00 0.00 0.00 36 1010.1